User: anonymous   Login
Location: Newark
(56.0692°N, 115.8617°E)
Time: 05:31:25
(UTC+00:00)
Language:

deb Explorer IX - Orbit

View from above orbital plane
View from above orbital plane
View from above satellite
View from above satellite

Ground track
Ground track

The orbit data is extracted from the following two-line orbital elements,

1    85U 61004C   20157.84691217 +.00002252 +00000-0 +50947-3 0  9996
2    85 038.7703 080.2733 0384580 063.6067 300.3625 14.20614535929440
Epoch (UTC): 05 June 2020 20:19:33
Eccentricity: 0.0384580
inclination: 38.7703°
perigee height: 546 km
apogee height: 1100 km
right ascension of ascending node: 80.2733°
argument of perigee: 63.6067°
revolutions per day: 14.20614535
mean anomaly at epoch: 300.3625°
orbit number at epoch: 92944

The dashed part of the orbit path shows where the satellite is in the earth's shadow,  

DLR